| time (UTC) | temp C | wind direction | speed KPH | gust KPH | rain 1hr cm | rain 24hr cm | rain mn cm | humidity % | barometer mb |
| 20260504081754 | 7 | 150 | 0.0 | 0.0 | 0.00 | 0.00 | 0.00 | 77 | 1014.2 |
| 20260504081250 | 7 | 150 | 0.0 | 0.0 | 0.00 | 0.00 | 0.00 | 76 | 1014.2 |
| 20260504080747 | 7 | 150 | 0.0 | 1.6 | 0.00 | 0.00 | 0.00 | 76 | 1014.2 |
| 20260504080243 | 7 | 150 | 1.6 | 1.6 | 0.00 | 0.00 | 0.00 | 76 | 1014.2 |
| 20260504070211 | 7 | 115 | 1.6 | 3.2 | 0.00 | 0.00 | 0.00 | 75 | 1014.3 |
| 20260504060131 | 7 | 146 | 1.6 | 1.6 | 0.00 | 0.00 | 0.00 | 78 | 1014.5 |
| 20260504050600 | 7 | 122 | 3.2 | 3.2 | 0.00 | 0.00 | 0.00 | 78 | 1014.7 |
| 20260504045553 | 6 | 111 | 1.6 | 1.6 | 0.00 | 0.00 | 0.00 | 77 | 1014.5 |
| 20260504045048 | 6 | 77 | 1.6 | 1.6 | 0.00 | 0.00 | 0.00 | 76 | 1014.7 |
| 20260504044547 | 6 | 81 | 0.0 | 0.0 | 0.00 | 0.00 | 0.00 | 76 | 1014.8 |
| 20260504044043 | 6 | 81 | 0.0 | 0.0 | 0.00 | 0.00 | 0.00 | 76 | 1014.7 |
| 20260504043540 | 6 | 68 | 1.6 | 1.6 | 0.00 | 0.00 | 0.00 | 75 | 1014.8 |
| 20260504043038 | 6 | 107 | 0.0 | 0.0 | 0.00 | 0.00 | 0.00 | 77 | 1014.8 |
| 20260504042534 | 6 | 107 | 0.0 | 0.0 | 0.00 | 0.00 | 0.00 | 79 | 1014.8 |
| 20260504042031 | 6 | 108 | 0.0 | 0.0 | 0.00 | 0.00 | 0.00 | 79 | 1014.7 |
| 20260504041527 | 5 | 107 | 0.0 | 0.0 | 0.00 | 0.00 | 0.00 | 79 | 1014.8 |
| 20260504041023 | 5 | 110 | 1.6 | 1.6 | 0.00 | 0.00 | 0.00 | 78 | 1014.7 |
| 20260504040521 | 5 | 107 | 1.6 | 1.6 | 0.00 | 0.00 | 0.00 | 78 | 1014.8 |
| 20260504040018 | 5 | 83 | 0.0 | 0.0 | 0.00 | 0.00 | 0.00 | 78 | 1014.8 |
| 20260504035515 | 5 | 81 | 0.0 | 0.0 | 0.00 | 0.00 | 0.00 | 78 | 1015.0 |
| 20260504035011 | 5 | 84 | 1.6 | 1.6 | 0.00 | 0.00 | 0.00 | 78 | 1014.9 |
| 20260504034509 | 5 | 91 | 0.0 | 0.0 | 0.00 | 0.00 | 0.00 | 77 | 1014.7 |
| 20260504034006 | 5 | 100 | 0.0 | 0.0 | 0.00 | 0.00 | 0.00 | 77 | 1014.8 |
| 20260504033503 | 5 | 81 | 0.0 | 0.0 | 0.00 | 0.00 | 0.00 | 76 | 1014.8 |
| 20260504033000 | 5 | 81 | 0.0 | 1.6 | 0.00 | 0.00 | 0.00 | 76 | 1014.8 |
| 20260504032457 | 5 | 72 | 0.0 | 0.0 | 0.00 | 0.00 | 0.00 | 76 | 1014.7 |
| 20260504031954 | 5 | 85 | 0.0 | 0.0 | 0.00 | 0.00 | 0.00 | 76 | 1014.6 |
| 20260504031451 | 5 | 113 | 0.0 | 0.0 | 0.00 | 0.00 | 0.00 | 77 | 1014.6 |
| 20260504030947 | 5 | 106 | 1.6 | 1.6 | 0.00 | 0.00 | 0.00 | 76 | 1014.7 |
| 20260504030445 | 5 | 102 | 0.0 | 1.6 | 0.00 | 0.00 | 0.00 | 76 | 1014.5 |
| 20260504025940 | 5 | 164 | 3.2 | 3.2 | 0.00 | 0.00 | 0.00 | 77 | 1014.5 |
| 20260504025437 | 6 | 161 | 3.2 | 3.2 | 0.00 | 0.00 | 0.00 | 71 | 1014.5 |
| 20260504024935 | 6 | 59 | 1.6 | 3.2 | 0.00 | 0.00 | 0.00 | 70 | 1014.5 |
| 20260504024431 | 6 | 56 | 0.0 | 1.6 | 0.00 | 0.00 | 0.00 | 72 | 1014.6 |
| 20260504023928 | 6 | 58 | 1.6 | 1.6 | 0.00 | 0.00 | 0.00 | 71 | 1014.8 |
| 20260504023425 | 6 | 80 | 0.0 | 1.6 | 0.00 | 0.00 | 0.00 | 69 | 1014.7 |
| 20260504022920 | 6 | 57 | 0.0 | 1.6 | 0.00 | 0.00 | 0.00 | 70 | 1014.6 |
| 20260504022417 | 6 | 66 | 1.6 | 1.6 | 0.00 | 0.00 | 0.00 | 69 | 1014.3 |
| 20260504021914 | 6 | 107 | 1.6 | 1.6 | 0.00 | 0.00 | 0.00 | 72 | 1014.5 |
| 20260504021411 | 7 | 106 | 0.0 | 0.0 | 0.00 | 0.00 | 0.00 | 70 | 1014.5 |
| 20260504020908 | 7 | 61 | 0.0 | 0.0 | 0.00 | 0.00 | 0.00 | 65 | 1014.4 |
| 20260504020405 | 7 | 61 | 0.0 | 1.6 | 0.00 | 0.00 | 0.00 | 66 | 1014.2 |
| 20260504015901 | 7 | 51 | 1.6 | 1.6 | 0.00 | 0.00 | 0.00 | 68 | 1014.3 |
| 20260504015357 | 7 | 49 | 1.6 | 1.6 | 0.00 | 0.00 | 0.00 | 67 | 1014.2 |
| 20260504014853 | 7 | 53 | 0.0 | 0.0 | 0.00 | 0.00 | 0.00 | 65 | 1014.0 |
| 20260504014349 | 7 | 53 | 1.6 | 1.6 | 0.00 | 0.00 | 0.00 | 65 | 1014.1 |
| 20260504013847 | 7 | 54 | 0.0 | 1.6 | 0.00 | 0.00 | 0.00 | 65 | 1014.1 |
| 20260504013345 | 7 | 53 | 1.6 | 1.6 | 0.00 | 0.00 | 0.00 | 65 | 1014.0 |
| 20260504012841 | 7 | 63 | 0.0 | 1.6 | 0.00 | 0.00 | 0.00 | 66 | 1013.9 |
| 20260504012339 | 7 | 67 | 0.0 | 1.6 | 0.00 | 0.00 | 0.00 | 65 | 1013.9 |
| 20260504011836 | 7 | 66 | 0.0 | 1.6 | 0.00 | 0.00 | 0.00 | 63 | 1014.0 |
| 20260504011333 | 7 | 66 | 0.0 | 1.6 | 0.00 | 0.00 | 0.00 | 63 | 1013.6 |
| 20260504010829 | 7 | 110 | 0.0 | 0.0 | 0.00 | 0.00 | 0.00 | 63 | 1013.8 |
| 20260504010324 | 8 | 111 | 0.0 | 0.0 | 0.00 | 0.00 | 0.00 | 67 | 1013.8 |
| 20260504005821 | 8 | 111 | 0.0 | 0.0 | 0.00 | 0.00 | 0.00 | 61 | 1013.7 |
| 20260504005318 | 9 | 104 | 0.0 | 0.0 | 0.00 | 0.00 | 0.00 | 59 | 1013.4 |
| 20260504004816 | 9 | 100 | 1.6 | 1.6 | 0.00 | 0.00 | 0.00 | 57 | 1013.7 |
| 20260504004313 | 10 | 83 | 0.0 | 1.6 | 0.00 | 0.00 | 0.00 | 57 | 1013.4 |
| 20260504003809 | 10 | 83 | 0.0 | 1.6 | 0.00 | 0.00 | 0.00 | 58 | 1013.5 |
| 20260504003307 | 10 | 78 | 0.0 | 0.0 | 0.00 | 0.00 | 0.00 | 58 | 1013.6 |
| 20260504002803 | 10 | 110 | 1.6 | 1.6 | 0.00 | 0.00 | 0.00 | 56 | 1013.6 |
| 20260504002300 | 11 | 56 | 0.0 | 0.0 | 0.00 | 0.00 | 0.00 | 53 | 1013.6 |
| 20260504001758 | 11 | 56 | 1.6 | 1.6 | 0.00 | 0.00 | 0.00 | 52 | 1013.5 |
| 20260504001255 | 11 | 58 | 0.0 | 1.6 | 0.00 | 0.00 | 0.00 | 51 | 1013.8 |
| 20260504000751 | 12 | 65 | 1.6 | 1.6 | 0.00 | 0.00 | 0.00 | 51 | 1013.4 |
| 20260504000248 | 12 | 71 | 0.0 | 1.6 | 0.00 | 0.00 | 0.00 | 48 | 1013.4 |
| 20260503235746 | 12 | 62 | 1.6 | 1.6 | 0.00 | 0.00 | 0.00 | 47 | 1013.3 |
| 20260503235243 | 13 | 72 | 0.0 | 1.6 | 0.00 | 0.00 | 0.00 | 43 | 1013.7 |
| 20260503234741 | 13 | 73 | 1.6 | 1.6 | 0.00 | 0.00 | 0.00 | 44 | 1013.3 |
| 20260503234239 | 14 | 86 | 0.0 | 0.0 | 0.00 | 0.00 | 0.00 | 39 | 1013.6 |
| 20260503233736 | 15 | 103 | 0.0 | 0.0 | 0.00 | 0.00 | 0.00 | 37 | 1013.4 |
| 20260503233231 | 15 | 78 | 1.6 | 1.6 | 0.00 | 0.00 | 0.00 | 36 | 1013.5 |
| 20260503232728 | 15 | 143 | 1.6 | 1.6 | 0.00 | 0.00 | 0.00 | 36 | 1013.4 |
| 20260503232226 | 15 | 101 | 0.0 | 0.0 | 0.00 | 0.00 | 0.00 | 35 | 1013.5 |
| 20260503231724 | 15 | 130 | 1.6 | 1.6 | 0.00 | 0.00 | 0.00 | 35 | 1013.3 |
| 20260503231220 | 16 | 59 | 0.0 | 0.0 | 0.00 | 0.00 | 0.00 | 33 | 1013.2 |
| 20260503230716 | 16 | 60 | 0.0 | 0.0 | 0.00 | 0.00 | 0.00 | 34 | 1013.1 |
| 20260503230214 | 16 | 271 | 4.8 | 4.8 | 0.00 | 0.00 | 0.00 | 32 | 1013.3 |
| 20260503225711 | 16 | 357 | 1.6 | 1.6 | 0.00 | 0.00 | 0.00 | 35 | 1013.1 |
| 20260503225211 | 16 | 11 | 3.2 | 3.2 | 0.00 | 0.00 | 0.00 | 33 | 1013.2 |
| 20260503224709 | 16 | 201 | 6.4 | 8.0 | 0.00 | 0.00 | 0.00 | 33 | 1013.2 |
| 20260503224207 | 17 | 217 | 4.8 | 4.8 | 0.00 | 0.00 | 0.00 | 32 | 1013.1 |
| 20260503223704 | 16 | 158 | 1.6 | 3.2 | 0.00 | 0.00 | 0.00 | 31 | 1012.9 |
| 20260503223201 | 17 | 129 | 1.6 | 1.6 | 0.00 | 0.00 | 0.00 | 32 | 1013.3 |
| 20260503222658 | 16 | 64 | 1.6 | 1.6 | 0.00 | 0.00 | 0.00 | 32 | 1013.2 |
| 20260503222155 | 16 | 208 | 8.0 | 9.7 | 0.00 | 0.00 | 0.00 | 31 | 1013.1 |
| 20260503221654 | 17 | 9 | 1.6 | 3.2 | 0.00 | 0.00 | 0.00 | 32 | 1013.3 |
| 20260503221151 | 17 | 293 | 6.4 | 9.7 | 0.00 | 0.00 | 0.00 | 31 | 1013.3 |
| 20260503220647 | 16 | 336 | 3.2 | 3.2 | 0.00 | 0.00 | 0.00 | 32 | 1013.5 |
| 20260503220144 | 16 | 253 | 6.4 | 11.3 | 0.00 | 0.00 | 0.00 | 31 | 1013.4 |
| 20260503215641 | 16 | 346 | 4.8 | 8.0 | 0.00 | 0.00 | 0.00 | 31 | 1013.3 |
| 20260503215137 | 16 | 336 | 6.4 | 11.3 | 0.00 | 0.00 | 0.00 | 31 | 1013.3 |
| 20260503214636 | 16 | 338 | 3.2 | 3.2 | 0.00 | 0.00 | 0.00 | 32 | 1013.3 |
| 20260503214132 | 16 | 251 | 8.0 | 11.3 | 0.00 | 0.00 | 0.00 | 31 | 1013.5 |
| 20260503213626 | 17 | 297 | 4.8 | 4.8 | 0.00 | 0.00 | 0.00 | 31 | 1013.4 |
| 20260503213122 | 16 | 240 | 6.4 | 8.0 | 0.00 | 0.00 | 0.00 | 33 | 1013.3 |
| 20260503212620 | 16 | 311 | 11.3 | 12.9 | 0.00 | 0.00 | 0.00 | 33 | 1013.4 |
| 20260503212117 | 16 | 311 | 9.7 | 11.3 | 0.00 | 0.00 | 0.00 | 32 | 1013.4 |
| 20260503211614 | 16 | 145 | 3.2 | 3.2 | 0.00 | 0.00 | 0.00 | 36 | 1013.3 |
| 20260503211109 | 16 | 228 | 4.8 | 8.0 | 0.00 | 0.00 | 0.00 | 36 | 1013.4 |
| 20260503210606 | 16 | 352 | 4.8 | 4.8 | 0.00 | 0.00 | 0.00 | 31 | 1013.4 |
| 20260503205558 | 16 | 253 | 4.8 | 8.0 | 0.00 | 0.00 | 0.00 | 35 | 1013.5 |
| 20260503205055 | 16 | 6 | 11.3 | 12.9 | 0.00 | 0.00 | 0.00 | 31 | 1013.6 |
| 20260503204552 | 17 | 7 | 4.8 | 8.0 | 0.00 | 0.00 | 0.00 | 32 | 1013.3 |
| 20260503204049 | 16 | 215 | 4.8 | 8.0 | 0.00 | 0.00 | 0.00 | 31 | 1013.5 |
| 20260503203546 | 16 | 351 | 3.2 | 3.2 | 0.00 | 0.00 | 0.00 | 32 | 1013.7 |
| 20260503203043 | 17 | 351 | 6.4 | 12.9 | 0.00 | 0.00 | 0.00 | 35 | 1013.5 |
| 20260503202541 | 16 | 332 | 12.9 | 14.5 | 0.00 | 0.00 | 0.00 | 33 | 1013.5 |
| 20260503202039 | 16 | 318 | 11.3 | 14.5 | 0.00 | 0.00 | 0.00 | 33 | 1013.4 |
| 20260503201537 | 16 | 45 | 4.8 | 4.8 | 0.00 | 0.00 | 0.00 | 34 | 1013.8 |
| 20260503201033 | 16 | 9 | 6.4 | 12.9 | 0.00 | 0.00 | 0.00 | 31 | 1013.8 |
| 20260503200529 | 16 | 240 | 14.5 | 17.7 | 0.00 | 0.00 | 0.00 | 33 | 1013.9 |
| 20260503200026 | 16 | 244 | 4.8 | 4.8 | 0.00 | 0.00 | 0.00 | 33 | 1013.9 |
| 20260503195524 | 16 | 25 | 4.8 | 4.8 | 0.00 | 0.00 | 0.00 | 33 | 1013.9 |
| 20260503195020 | 16 | 66 | 6.4 | 9.7 | 0.00 | 0.00 | 0.00 | 32 | 1014.1 |
| 20260503194518 | 15 | 340 | 20.9 | 25.7 | 0.00 | 0.00 | 0.00 | 32 | 1014.1 |
| 20260503194017 | 16 | 5 | 12.9 | 16.1 | 0.00 | 0.00 | 0.00 | 34 | 1014.3 |
| 20260503193514 | 16 | 237 | 8.0 | 9.7 | 0.00 | 0.00 | 0.00 | 35 | 1014.2 |
| 20260503193009 | 16 | 222 | 17.7 | 20.9 | 0.00 | 0.00 | 0.00 | 34 | 1014.3 |
| 20260503192506 | 16 | 283 | 1.6 | 3.2 | 0.00 | 0.00 | 0.00 | 35 | 1014.3 |
| 20260503192001 | 15 | 277 | 4.8 | 9.7 | 0.00 | 0.00 | 0.00 | 35 | 1014.4 |
| 20260503191459 | 16 | 284 | 4.8 | 4.8 | 0.00 | 0.00 | 0.00 | 33 | 1014.5 |
| 20260503190955 | 16 | 343 | 8.0 | 14.5 | 0.00 | 0.00 | 0.00 | 30 | 1014.8 |
| 20260503190453 | 15 | 75 | 6.4 | 9.7 | 0.00 | 0.00 | 0.00 | 31 | 1014.8 |
| 20260503185950 | 15 | 41 | 12.9 | 17.7 | 0.00 | 0.00 | 0.00 | 32 | 1014.7 |
| 20260503185446 | 16 | 317 | 1.6 | 3.2 | 0.00 | 0.00 | 0.00 | 35 | 1014.8 |
| 20260503184945 | 15 | 311 | 11.3 | 16.1 | 0.00 | 0.00 | 0.00 | 35 | 1014.9 |
| 20260503184442 | 15 | 40 | 4.8 | 8.0 | 0.00 | 0.00 | 0.00 | 35 | 1015.0 |
| 20260503183938 | 15 | 9 | 0.0 | 0.0 | 0.00 | 0.00 | 0.00 | 37 | 1015.0 |
| 20260503183435 | 15 | 285 | 3.2 | 4.8 | 0.00 | 0.00 | 0.00 | 36 | 1015.3 |
| 20260503182932 | 15 | 246 | 17.7 | 20.9 | 0.00 | 0.00 | 0.00 | 35 | 1014.9 |
| 20260503182431 | 15 | 328 | 3.2 | 4.8 | 0.00 | 0.00 | 0.00 | 35 | 1015.1 |
| 20260503181928 | 15 | 233 | 11.3 | 11.3 | 0.00 | 0.00 | 0.00 | 36 | 1015.1 |
| 20260503181425 | 15 | 266 | 3.2 | 3.2 | 0.00 | 0.00 | 0.00 | 36 | 1014.9 |
| 20260503180921 | 15 | 323 | 8.0 | 14.5 | 0.00 | 0.00 | 0.00 | 33 | 1015.4 |
| 20260503180420 | 15 | 355 | 6.4 | 14.5 | 0.00 | 0.00 | 0.00 | 37 | 1015.3 |
| 20260503175917 | 15 | 311 | 8.0 | 14.5 | 0.00 | 0.00 | 0.00 | 37 | 1015.5 |
| 20260503175415 | 15 | 231 | 6.4 | 11.3 | 0.00 | 0.00 | 0.00 | 37 | 1015.4 |
| 20260503174910 | 14 | 316 | 8.0 | 9.7 | 0.00 | 0.00 | 0.00 | 37 | 1015.7 |
| 20260503174409 | 15 | 5 | 9.7 | 11.3 | 0.00 | 0.00 | 0.00 | 39 | 1015.4 |
| 20260503173908 | 15 | 10 | 6.4 | 9.7 | 0.00 | 0.00 | 0.00 | 37 | 1015.4 |
| 20260503173405 | 14 | 295 | 8.0 | 12.9 | 0.00 | 0.00 | 0.00 | 41 | 1015.8 |
| 20260503172901 | 15 | 320 | 17.7 | 27.4 | 0.00 | 0.00 | 0.00 | 36 | 1015.4 |
| 20260503172359 | 14 | 177 | 3.2 | 3.2 | 0.00 | 0.00 | 0.00 | 45 | 1015.5 |
| 20260503171855 | 14 | 60 | 8.0 | 11.3 | 0.00 | 0.00 | 0.00 | 40 | 1015.5 |
| 20260503171352 | 14 | 326 | 6.4 | 11.3 | 0.00 | 0.00 | 0.00 | 40 | 1015.8 |
| 20260503170850 | 14 | 358 | 17.7 | 27.4 | 0.00 | 0.00 | 0.00 | 37 | 1015.8 |
| 20260503170346 | 13 | 269 | 9.7 | 11.3 | 0.00 | 0.00 | 0.00 | 40 | 1015.9 |
| 20260503150738 | 11 | 55 | 9.7 | 14.5 | 0.00 | 0.00 | 0.00 | 43 | 1017.2 |
| 20260503150234 | 11 | 266 | 9.7 | 12.9 | 0.00 | 0.00 | 0.00 | 43 | 1016.8 |
| 20260503140158 | 10 | 265 | 8.0 | 9.7 | 0.00 | 0.00 | 0.00 | 50 | 1017.2 |
| 20260503131128 | 7 | 345 | 14.5 | 16.1 | 0.00 | 0.00 | 0.00 | 53 | 1017.3 |
| 20260503130626 | 8 | 328 | 4.8 | 9.7 | 0.00 | 0.00 | 0.00 | 54 | 1017.2 |
| 20260503130123 | 8 | 311 | 9.7 | 12.9 | 0.00 | 0.00 | 0.00 | 54 | 1017.0 |
| 20260503110516 | 5 | 123 | 1.6 | 1.6 | 0.00 | 0.00 | 0.00 | 67 | 1016.1 |